Starlink 30375

operational
NORAD ID: 57732 Int'l Des: 2023-131 Owner: SPXS Country: US Constellation: starlink
LEOCIRCULAR

About Starlink 30375

Description loading...

Live Position

Loading 3D Globe...

Upcoming Passes

Altitude History

Altitude vs Time

uPlot chart will show altitude changes over time

Two-Line Element Set

1 57732U 23131A 25308.53013320 .00000982 00000-0 87745-4 0 9993
2 57732 43.0031 119.3767 0001406 262.7784 97.2899 15.02539623121259
Epoch: Nov 4, 2025 • Age: 8 hours

Current Status

Altitude 562.2 km
Velocity 7.59 km/s
Sub-Earth Point 39.14°N, 125.1°W
Launch Date Sep 1, 2023
Age 2.1 years
Type internet

Technical Details

Classification Payload
Mass 730.00 kg
Dry Mass 700.00 kg
Total Mass 730.00 kg
Length 0.30 m
Diameter 4.10 m
Span 29.00 m
Shape Box + pan
Manufacturer SPXS
Bus Type Starlink V2M
Phase Status In Orbit
Owner/State SPXS/US

Large Constellations

Loading constellations...